Voltar ao catálogo

STARLINK-33683

AtivoComunicaçõesVLEO
NORAD 63573·PAYLOAD·🇺🇸 United States

Lançado Apr 14, 2025 de Cape Canaveral Space Force Station

Loading…

Próximas Passagens (próximas 24 horas)

TLE

AtualizadoSource: CelesTrak SupGP

Época: Sep 15, 2026, 02:34 UTC

1 63573C 25076E   26258.10743056  .00043010  00000+0  15581-2 0  2580
2 63573  43.0006 332.2884 0001459 267.0286 166.4944 15.27551973    19

Acompanhe STARLINK-33683 em tempo real com AllMySat

Download on the App Store